カタログに戻る

ONEWEB-0544

運用中通信PO
NORAD 55144·PAYLOAD·🇬🇧 United Kingdom

打ち上げ Jan 10, 2023 から Cape Canaveral Space Force Station

Loading…

次のパス (今後24時間)

TLE

最新Source: CelesTrak SupGP

元期: Sep 14, 2026, 13:31 UTC

1 55144C 23004E   26257.56336065  .00003776  00000+0  95891-2 0  2577
2 55144  87.9163 317.7079 0001834  93.1983  19.4307 13.18685168    10

AllMySatでONEWEB-0544をリアルタイム追跡

Download on the App Store